My Profile
  1. Member Settings
  2. My Devices
  3. Sign Out
        More Settings
      Elev 6647 ft, 28.502 °N 106.908 °W

      Cuauhtémoc, MX

      Summary

      Temperature (°F)MaxAverageMin
      Max Temperature8673.9453
      Avg Temperature71.1762.4646
      Min Temperature6249.0339
      Precipitation (in)MaxAverageMinSum
      Precipitation0000
      Dew Point (°F)MaxAverageMin
      Dew Point5239.9132.17
      Wind (mph)MaxAverageMin
      Wind9411.354
      Gust Wind2216.511
      Sea Level Pressure (in)MaxAverageMin
      Sea Level Pressure25.6625.5425.4

      Daily Observations

      DateTemp High/LowDew Pt High/LowHumidityWindMax WindWind GustPressurePrecip.Condition
      11/1/2021 84 °F / 50 °F 46 °F / 37 °F 50 % 51 mph - 25.52 in 0 in
      11/2/2021 82 °F / 52 °F 47 °F / 35 °F 37 % 7 mph - 25.52 in 0 in
      11/3/2021 78 °F / 49 °F 39 °F / 29 °F 32 % 4 mph - 25.48 in 0 in
      11/4/2021 71 °F / 49 °F 46 °F / 39 °F 56 % 7 mph - 25.54 in 0 in
      11/5/2021 76 °F / 51 °F 46 °F / 34 °F 42 % 9 mph - 25.52 in 0 in
      11/6/2021 81 °F / 49 °F 44 °F / 37 °F 42 % 7 mph - 25.54 in 0 in
      11/7/2021 86 °F / 50 °F 43 °F / 36 °F 38 % 9 mph - 25.51 in 0 in
      11/8/2021 82 °F / 54 °F 40 °F / 34 °F 33 % 7 mph - 25.54 in 0 in
      11/9/2021 77 °F / 55 °F 54 °F / 35 °F 37 % 94 mph - 25.55 in 0 in
      11/10/2021 80 °F / 58 °F 42 °F / 33 °F 32 % 9 mph - 25.41 in 0 in
      11/11/2021 75 °F / 45 °F 34 °F / 30 °F 34 % 7 mph - 25.51 in 0 in
      11/12/2021 76 °F / 43 °F 44 °F / 29 °F 41 % 4 mph - 25.57 in 0 in
      11/13/2021 77 °F / 63 °F 43 °F / 36 °F 34 % 9 mph - 25.57 in 0 in
      11/14/2021 80 °F / 47 °F 42 °F / 33 °F 41 % 4 mph - 25.59 in 0 in
      11/15/2021 81 °F / 46 °F 43 °F / 30 °F 39 % 4 mph - 25.59 in 0 in
      11/16/2021 85 °F / 47 °F 51 °F / 30 °F 40 % 7 mph - 25.44 in 0 in
      11/17/2021 78 °F / 61 °F 44 °F / 29 °F 33 % 9 mph - 25.43 in 0 in
      11/18/2021 64 °F / 44 °F 41 °F / 24 °F 45 % 7 mph - 25.64 in 0 in
      11/19/2021 74 °F / 39 °F 48 °F / 26 °F 49 % 9 mph - 25.6 in 0 in
      11/20/2021 79 °F / 49 °F 48 °F / 38 °F 51 % 7 mph - 25.49 in 0 in
      11/21/2021 76 °F / 49 °F 60 °F / 29 °F 39 % 9 mph - 25.55 in 0 in
      11/22/2021 63 °F / 45 °F 39 °F / 30 °F 44 % 4 mph - 25.66 in 0 in
      11/23/2021 79 °F / 43 °F 53 °F / 32 °F 43 % 9 mph - 25.43 in 0 in
      11/24/2021 70 °F / 62 °F 47 °F / 38 °F 41 % 7 mph - 25.43 in 0 in
      11/25/2021 63 °F / 50 °F 50 °F / 35 °F 56 % 13 mph - 25.6 in 0 in
      11/26/2021 48 °F / 43 °F 42 °F / 27 °F 78 % 4 mph - 25.6 in 0 in
      11/27/2021 59 °F / 44 °F 50 °F / 42 °F 84 % 7 mph - 25.5 in 0 in
      11/28/2021 61 °F / 42 °F 47 °F / 37 °F 67 % 4 mph - 25.65 in 0 in
      11/29/2021 67 °F / 41 °F 53 °F / 40 °F 70 % 7 mph - 25.57 in 0 in
      11/30/2021 72 °F / 46 °F 53 °F / 45 °F 72 % 7 mph - 25.5 in 0 in
      essentialaccessibility.com
      We recognize our responsibility to use data and technology for good. We may use or share your data with our data vendors. Take control of your data.
      Glossary